User: anonymous   Login
Location: Larrial
(48.2758°N, 4.5331°W)
Time: 10:06:07
(UTC+00:00)
Language:

Iridium 2 - Orbit

View from above orbital plane
View from above orbital plane
View from above satellite
View from above satellite

Ground track
Ground track

The orbit data is extracted from the following two-line orbital elements,

1 25527U 98066A   20184.82422114 +.00000667 +00000-0 +30336-4 0  9997
2 25527 085.5303 094.9093 0007528 333.6307 026.4550 15.18634517186961
Epoch (UTC): 02 July 2020 19:46:52
Eccentricity: 0.0007528
inclination: 85.5303°
perigee height: 505 km
apogee height: 515 km
right ascension of ascending node: 94.9093°
argument of perigee: 333.6307°
revolutions per day: 15.18634517
mean anomaly at epoch: 26.4550°
orbit number at epoch: 18696

The dashed part of the orbit path shows where the satellite is in the earth's shadow,  

DLR